SHIJIAN-20 (SJ-20)

Last updated on Tue Oct 08 2024 00:02:41 GMT+0000 (Coordinated Universal Time)

1 44910U 19097A 24281.55755894 -.00000056 00000+0 00000+0 0 9999 2 44910 3.3268 82.5835 0008845 116.8385 91.0211 1.00271271 17508
UTC large
Height (km)
Speed (km/s)
/
Latitude / Longitude
Inclination (degrees)
Orbital Period (minutes)
Azimuth
Elevation
Range (km)
Doppler Factor

Next 0 passes for location: London (51.5072 / 0.1276)

Sorry there are no passes over London.